Location: Holmes Observatory
(37.1039°N, 122.0513°W)
Time: 03:27:15
(UTC-08:00)

Daily predictions for brighter satellites

Satellite Brightness Start Highest point End
(mag) Time Altitude Azimuth Time Altitude Azimuth Time Altitude Azimuth
CZ-4C R/B 4.3 03:29:41 34° E 03:29:41 34° E 03:34:42 10° ESE
H-2A R/B 4.0 03:35:41 58° SE 03:35:41 58° SE 04:02:25 10° E
USA 234 4.3 04:31:54 10° NNE 04:35:58 31° N 04:35:58 31° N
ATLAS CENTAUR R/B 3.1 04:43:52 33° ESE 04:43:52 33° ESE 04:46:38 10° SE
Cosmos 2278 Rocket 2.8 04:46:16 46° NNE 04:46:16 46° NNE 04:50:10 10° NNE
SL-8 R/B 4.4 04:51:46 51° ENE 04:51:46 51° ENE 04:55:25 10° ENE
USA 229 DEB 3.5 04:50:51 60° SSW 04:52:13 89° ESE 04:59:08 10° NNE
USA 229 3.5 04:50:52 59° SSW 04:52:19 88° ESE 04:59:14 10° NNE
SL-27 R/B 4.4 04:56:59 30° E 04:56:59 30° E 04:59:50 10° SE
Cosmos 2074 Rocket 4.4 04:50:38 10° S 04:56:44 62° E 05:02:51 10° NNE
Cosmos 1626 3.6 04:59:24 35° ESE 04:59:24 35° ESE 05:02:05 10° SSE
Cosmos 1766 Rocket 4.0 05:00:10 59° ENE 05:00:18 59° E 05:04:41 10° SSE
Cosmos 371 Rocket 3.8 05:03:10 48° S 05:03:10 48° S 05:06:42 10° SSE
Cosmos 2208 Rocket 4.2 05:02:29 40° N 05:04:28 72° ENE 05:09:53 10° SSE
COSMO-SKYMED 1 3.3 05:04:42 10° SSE 05:08:53 51° ENE 05:11:28 22° N
IDEFIX/ARIANE 42P 3.1 05:04:51 10° NNE 05:10:04 60° E 05:15:15 10° S
GPS 2-04 Rocket1 3.2 05:12:44 57° SE 05:12:44 57° SE 05:16:21 10° ESE
Cosmos 1174 4.4 05:14:41 45° ENE 05:14:41 45° ENE 05:17:49 10° SE
CZ-4C R/B 3.2 05:14:56 44° W 05:15:57 46° WSW 05:23:33 10° S
Abrixas rocket 3.5 05:18:48 38° ESE 05:18:48 38° ESE 05:20:56 10° ESE
Cosmos 2181 Rocket 4.0 05:17:39 47° WNW 05:18:43 52° W 05:24:37 10° SSW
NOAA 6 4.0 05:14:08 10° NNE 05:19:22 85° ESE 05:24:33 10° SSW
CZ-2C R/B 3.6 05:15:24 10° S 05:20:06 74° WSW 05:21:05 55° NW
Meteor 2-8 Rocket 4.3 05:18:03 10° N 05:24:11 79° W 05:30:16 10° S
Meteor 1-16 Rocket 4.2 05:21:39 10° SSW 05:27:06 54° WNW 05:32:25 10° N
Cosmos 2082 Rocket 2.7 05:23:57 12° NNW 05:29:07 59° ENE 05:34:38 10° SE
Cosmos 2151 4.0 05:25:20 10° N 05:29:30 46° E 05:33:35 10° SSE
Feng Yun 1-1 Rocket 4.0 05:29:58 10° N 05:35:22 74° WNW 05:40:44 10° SSW
Cosmos 1570 Rocket 4.1 05:34:07 40° WNW 05:35:25 50° WSW 05:40:26 10° S
Okean-O 2.5 05:33:47 10° N 05:38:12 70° WNW 05:42:35 10° SSW
MSX 4.1 05:32:46 10° NNE 05:38:31 69° ESE 05:44:13 10° S
SKYMED 3 4.4 05:34:35 10° S 05:38:54 70° W 05:41:50 20° NNW
Cosmos 2327 Rocket 4.3 05:33:10 10° SSW 05:39:18 70° W 05:45:25 10° N
Meteor 2-19 Rocket 4.4 05:34:48 10° SSW 05:40:46 61° W 05:46:46 10° N
Gbstr 26 Del rocket 3.9 05:39:32 31° WSW 05:42:23 63° NW 05:49:21 10° NE
NOSS 3-1 (C) 3.2 05:38:30 10° SW 05:44:05 75° WNW 05:50:23 10° NNE
Cosmos 1703 3.1 05:42:03 16° N 05:45:05 77° W 05:49:00 10° S
MTI 3.7 05:43:39 10° S 05:46:50 58° WSW 05:47:04 56° W
Cosmos 1408 Rocket 3.9 05:47:14 31° NW 05:48:42 42° W 05:52:53 10° SSW
Cosmos 304 Rocket 3.6 05:45:55 14° NNW 05:50:01 79° WSW 05:54:49 10° SSE
Cosmos 1833 Rocket 2.6 05:45:10 11° NNW 05:50:41 86° WSW 05:56:20 10° SSE
Tiangong 2 2.4 05:50:24 27° N 05:50:44 27° N 05:53:32 10° ENE
Milstar 3 3.6 05:46:15 18° WSW 05:51:41 43° S 05:57:52 10° ESE
Cosmos 2154 Rocket 3.9 05:46:33 10° S 05:52:44 88° W 05:59:00 10° N
Meteor 1-11 4.4 05:49:01 10° NNW 05:54:36 51° W 06:00:12 10° SSW
Cosmos 2297 3.7 05:49:48 10° SW 05:55:25 57° WNW 06:01:03 10° NNE
SKYMED 2 3.9 05:52:51 10° S 05:56:57 42° W 06:00:04 16° NNW
Cosmos 1818 3.8 05:52:32 10° SSW 05:57:55 75° ESE 06:03:21 10° NNE
Landsat 4 4.2 05:57:24 10° S 06:00:58 39° W 06:03:00 21° NW
Cosmos 2221 3.0 05:58:34 10° S 06:02:46 62° E 06:07:01 10° NNE
Cosmos 1500 Rocket 3.4 05:58:39 10° N 06:03:03 85° W 06:07:24 10° S
EO 1 Del DPAF 3.3 05:59:37 10° S 06:03:20 53° W 06:07:05 10° NNW
Cosmos 1484 Rocket 3.4 06:01:24 10° NNE 06:05:06 57° E 06:08:50 10° S
Radarsat Rocket 4.1 06:04:17 10° N 06:10:28 51° WNW 06:16:08 10° SW
Cosmos 1300 3.8 06:09:24 10° SSE 06:13:03 47° E 06:16:45 10° NNE
Meteor 2-1 Rocket 4.3 06:09:19 10° SSW 06:14:40 52° WNW 06:20:08 10° N
Cosmos 1743 Rocket 3.9 06:14:26 10° NNW 06:18:30 41° W 06:22:35 10° SSW
ATLAS CENTAUR R/B 3.1 06:20:10 14° W 06:21:06 15° WSW 06:23:40 10° SSW
SJ-12 4.1 06:17:10 10° N 06:21:09 48° WNW 06:25:08 10° SSW
Shenzhou-11 Module 2.4 06:20:40 18° NW 06:22:41 51° NNE 06:25:38 10° E
CZ-2C R/B 2.9 06:19:54 10° N 06:24:03 33° WNW 06:28:19 10° SW
BREEZE M DEB (TANK) 2.7 06:23:22 10° SSW 06:26:05 37° SE 06:28:06 10° ENE
Cosmos 1726 2.2 06:23:13 10° SSW 06:26:52 53° W 06:30:30 10° N
Cosmos 1295 Rocket 4.4 06:20:52 10° SSW 06:27:00 74° W 06:33:07 10° N
CSL-04 Rocket 3.9 06:23:08 10° NNE 06:28:29 76° ESE 06:33:45 10° S
Cosmos 2278 Rocket 3.8 06:28:12 12° WNW 06:29:22 13° NW 06:31:47 10° NNW
Nadezhda 3 Rocket 4.2 06:25:02 10° NNW 06:31:08 52° W 06:37:09 10° SSW
SL-27 R/B 4.4 06:30:42 13° W 06:31:27 13° W 06:33:14 10° SW
Cosmos 2058 3.9 06:29:19 10° NNW 06:32:51 26° W 06:36:19 10° SSW
Timation 2 Rocket 4.3 06:28:50 10° NNW 06:34:58 67° ENE 06:40:55 10° SSE
Lacrosse 5 rocket 1.7 06:36:20 10° SSW 06:39:56 61° SE 06:43:42 10° NE
SMAP 3.0 06:36:40 10° N 06:41:19 75° WNW 06:45:57 10° SSW
USA 81 4.2 06:37:42 10° NNW 06:42:51 55° W 06:47:58 10° SSW
Cosmos 1354 Rocket 4.0 06:38:20 10° SSW 06:43:33 71° WNW 06:48:48 10° NNE
CZ-4 R/B 1.4 06:39:32 10° NNE 06:43:37 85° ESE 06:47:33 10° SSW
COSMO-SKYMED 1 4.4 06:43:40 10° WSW 06:45:19 12° W 06:46:58 10° WNW
NOSS 3-1 (A) 3.8 06:40:24 10° WSW 06:45:44 39° NW 06:51:42 10° NNE
IDEFIX/ARIANE 42P 4.0 06:45:59 10° NNW 06:49:07 16° WNW 06:52:16 10° W
Cosmos 841 Rocket 3.9 06:45:08 10° NNW 06:49:57 41° WSW 06:54:43 10° S
Thor Agena Rocket 3.7 06:45:51 10° S 06:50:59 58° WSW 06:56:13 10° NNW
